Registration Issues

Some visitors received a warning that they were flagged as a spammer when attempting to register. The admins fixed an error with the code on 6/24/17. If you still experience this issue, please contact the staff through the site's Contact Us form.

Members

RankUsername Posts Website Joined
quema 0   Fri Feb 04, 2005 12:00 am
queenphil 0   Mon May 09, 2005 11:00 pm
QAguy 0   Mon Mar 20, 2006 12:00 am
Queso 0   Mon Dec 25, 2006 12:00 am
UserQueenbean 540   Wed Mar 07, 2007 12:00 am
Userqueencarrie 1   Thu May 17, 2007 11:00 pm
queenswithcurves 0   Fri Jul 06, 2007 11:00 pm
quick 0   Sun Sep 09, 2007 11:00 pm
Userquiteweather 11   Thu Nov 15, 2007 12:00 am
QUEality_Man 0   Mon Jan 14, 2008 12:00 am
quibble 0   Sat May 17, 2008 11:00 pm
UserQuinn 6   Sat Jun 07, 2008 11:00 pm
Userqwerty123 1   Wed Jan 21, 2009 12:00 am
UserQuiltingMom 1   Thu Mar 19, 2009 11:00 pm
qaz 0   Wed Jul 01, 2009 11:00 pm
Quancampinc 0   Tue Oct 06, 2009 11:00 pm
quintonwebster 0   Tue Dec 08, 2009 12:00 am
QuepSpoupeMox 0   Sat Jan 02, 2010 12:00 am
QuexAttirmtem 0   Wed Apr 21, 2010 11:00 pm
QuownLewheese 0   Mon May 10, 2010 11:00 pm
quefIdewess 0   Fri May 14, 2010 11:00 pm
QuesOceaskcar 0   Sat Jul 10, 2010 11:00 pm
Quidadato 0   Sun Aug 22, 2010 11:00 pm
quifiagma 0   Mon Aug 23, 2010 11:00 pm
Quewlytew 0   Sat Oct 02, 2010 11:00 pm
Quitsa 0   Sun Oct 10, 2010 11:00 pm
Quonaeronee 0   Sun Oct 31, 2010 11:00 pm
QCHHelene8 0   Mon Sep 19, 2016 11:00 pm